Weather Roundup
Issued by NWS Chicago, IL

Home | Current Version | Previous Version | Graphics & Text | Print | Product List | Glossary On
Versions: 1 2 3 4 5 6 7 8 9 10 11 12 13 14 15 16 17 18 19 20 21 22 23 24 25 26 27 28 29 30 31 32 33 34 35 36 37 38 39 40 41 42 43 44 45 46 47 48 49 50
000
NZUS59 KLOT 041121
HRRLOT

CHICAGO AREA WEATHER ROUNDUP
NATIONAL WEATHER SERVICE CHICAGO/ROMEOVILLE IL
600 AM CDT MON MAY 04 2015

NOTE: "FAIR" INDICATES FEW OR NO CLOUDS BELOW 12,000 FEET WITH NO
SIGNIFICANT WEATHER AND/OR OBSTRUCTIONS TO VISIBILITY.

* THESE STATIONS ARE NOT UNDER NWS QUALITY CONTROL. THEY ALSO MAY NOT
  REPORT WEATHER SUCH AS PRECIPITATION OR FOG.

ILZ005-006-012>014-019>023-041200-
NORTHEAST ILLINOIS

CITY           SKY/WX    TMP DP  RH WIND       PRES   REMARKS
OHARE          CLOUDY    60  54  80 W6        29.94R
MIDWAY         CLOUDY    65  54  67 S15G21    29.93R
AURORA         LGT RAIN  62  54  74 S15       29.95R
LANSING*       CLOUDY    59  54  82 S10       29.95F
JOLIET*        LGT RAIN  64  58  82 SW12G17   30.00R
WAUKEGAN       CLOUDY    58  55  90 SW7       29.94R
DUPAGE AIRPORT CLOUDY    60  55  83 SW7       29.95R
WHEELING       CLOUDY    60  53  77 NW5       29.96R
KANKAKEE*      CLOUDY    62  56  81 SW8       30.02R
MORRIS*        RAIN      61  57  86 SW14      29.98R
LEWIS AIRPORT* RAIN      61  55  81 SW15      29.99R
NORTHERLY IS     N/A     64  51  62 SW5         N/A
$$

WIZ051-052-058>065-066-070>072-041200-
SOUTHEAST WISCONSIN

CITY           SKY/WX    TMP DP  RH WIND       PRES   REMARKS
MILWAUKEE      CLOUDY    61  53  75 W7        29.92R
KENOSHA*       CLOUDY    56  54  93 W5        29.93R
RACINE*        CLOUDY    60  53  77 NW5       29.93R
BURLINGTON     CLOUDY    51  51  99 N3        29.94R FOG
WAUKESHA       CLOUDY    54  54 100 W6        29.94R
WEST BEND      CLOUDY    59  54  82 W8        29.96R
$$

INZ001>003-010>013-019-020-041200-
NORTHWEST INDIANA

CITY           SKY/WX    TMP DP  RH WIND       PRES   REMARKS
GARY*          CLOUDY    63 N/A N/A S14       29.94F
MICHIGAN CITY* NOT AVBL
RENSSELAER*    NOT AVBL
VALPARAISO     CLOUDY    61  51  70 SW10      29.98S
$$

LMZ740>746-041200-
SOUTHERN LAKE MICHIGAN

STATION/POSITION TIME  SKY/WX   TEMP WIND        PRES    VSBY
                                AIR  DIR/SP/G
                 (UTC)          (F)  (DEG/KT/KT) (MB)    (MI)
HARRISON CRIB    1100            61  200/  5/  9   N/A
BURNHAM HARBOR   1100            64  230/  7/ 12   N/A
CALUMET HARBOR   1100            62  190/  9/ 13   N/A
BURNS HARBOR     1000            66  220/ 13/ 18 1014.6S
MICHIGAN CITY    1100            63  160/ 16/ 22   N/A
$$

ABBREVIATIONS USED IN REMARKS
   TC - TEMPERATURE IN CELSIUS
  WCI - WIND CHILL INDEX
   HX - HEAT INDEX
  VSB - VISIBILITY
$$


USA.gov is the U.S. government's official web portal to all federal, state and local government web resources and services.